Regional Weather Roundup
Issued by NWS

Home | Current Version | Previous Version | Graphics & Text | Print | Product List | Glossary Off
Versions: 1 2 3 4 5 6 7 8 9 10 11 12 13 14 15 16 17 18 19 20 21 22 23 24 25 26 27 28 29 30 31 32 33 34 35 36 37 38 39 40 41 42 43 44 45 46 47 48 49 50

000
ASUS43 KDMX 221207
RWRIA

WEATHER ROUNDUP FOR IOWA
NATIONAL WEATHER SERVICE DES MOINES IA
700 AM CDT TUE JUL 22 2014

NOTE: "FAIR" INDICATES FEW OR NO CLOUDS BELOW 12,000 FEET WITH NO
SIGNIFICANT WEATHER AND/OR OBSTRUCTIONS TO VISIBILITY.

* - THESE STATIONS ARE NOT NWS STATIONS...THUS NOT UNDER NWS
QUALITY CONTROL.  THEY ALSO DO NOT REPORT WEATHER SUCH
AS PRECIPITATION OR FOG.

IAZ001>003-012>014-020>022-031>034-043>046-221300-
   NORTHWEST IOWA

CITY           SKY/WX    TMP DP  RH WIND       PRES   REMARKS
CARROLL *      CLEAR     79  72  78 VRB5      29.92R HX  82
CHEROKEE *     PTCLDY    76  75  97 N16G25    29.98R FOG
DENISON *      CLEAR     77  73  88 MISG      29.93R
LE MARS *      CLEAR     73  66  78 N15G22    30.00R
ORANGE CITY *  CLEAR     73  63  68 N13       30.00R
SHELDON *      CLEAR     70  64  83 N12       29.99F
SIOUX CITY     PTCLDY    78  70  76 N16       29.96R HX  80
6HR MIN TEMP:  77; 6HR MAX TEMP:  84;

SPENCER        CLEAR     72  65  78 N21G38    30.01R
6HR MIN TEMP:  72; 6HR MAX TEMP:  79;

STORM LAKE *   PTCLDY    77  77 100 N12       29.98R FOG
$$

IAZ055>058-069>071-079>083-090>094-221300-
   SOUTHWEST IOWA

CITY           SKY/WX    TMP DP  RH WIND       PRES   REMARKS
ATLANTIC *     CLEAR     77  73  88 S9        29.94R FOG
AUDUBON *      CLEAR     81  75  83 S5        29.95R HX  86
CLARINDA *     CLEAR     75  75 100 S5        29.99R FOG
COUNCIL BLFS * CLEAR     79  73  83 SW9       29.94R HX  82
CRESTON *      CLEAR     75  75 100 S14       29.97F FOG
HARLAN  *      CLEAR     77  73  88 SW8       29.97R
LAMONI         MOCLDY    77  74  90 S13       29.99R
6HR MIN TEMP:  76; 6HR MAX TEMP:  78;

RED OAK *      MOCLDY    73  73 100 S7        29.96S FOG
SHENANDOAH *   CLEAR     77  73  88 S6        29.97R FOG
$$

IAZ047>049-059>061-072>074-084-221300-
   CENTRAL IOWA

CITY           SKY/WX    TMP DP  RH WIND       PRES   REMARKS
AMES           MOCLDY    78  74  87 S7        29.91F HX  81
6HR MIN TEMP:  78; 6HR MAX TEMP:  80;

ANKENY *       PTCLDY    79  75  89 SW13      29.92S HX  82
CHARITON *     PTCLDY    79  75  89 S13       29.97S HX  82
DES MOINES     LGT RAIN  80  74  81 S9        29.93R HX  85
6HR MIN TEMP:  80; 6HR MAX TEMP:  83; 6HR PCP: TRACE;

GRINNELL*      PTSUNNY   77  72  83 S8        29.95R
KNOXVILLE *    PTCLDY    79  73  83 S13       29.93F HX  82
MARSHALLTOWN   MOSUNNY   79  74  84 S12       29.92R HX  82
6HR MIN TEMP:  77; 6HR MAX TEMP:  79;

PELLA *        CLOUDY    79  73  82 SW10      29.95F HX  82
PERRY *          N/A     79  72  78 SW13      29.92R HX  82
$$

IAZ004>006-015-016-023>025-035-036-221300-
   NORTH CENTRAL IOWA

CITY           SKY/WX    TMP DP  RH WIND       PRES   REMARKS
ALGONA *       CLEAR     75  75 100 NW10      29.93R FOG
CLARION *      CLEAR     75  75 100 CALM      29.92R
ESTHERVILLE    MOCLDY    72  66  81 NW20G36   30.02R
6HR MIN TEMP:  72; 6HR MAX TEMP:  79;

FORT DODGE *   CLEAR     75  72  88 CALM      29.93R
MASON CITY     SUNNY     76  74  93 SW7       29.93R FOG
6HR MIN TEMP:  74; 6HR MAX TEMP:  79;

FOREST CITY *  MOSUNNY   73  73 100 CALM      29.92S FOG
IOWA FALLS *     N/A     77  73  88 S10       29.92F
$$

IAZ007>011-017>019-026>030-037>042-050>054-066-221300-
   NORTHEAST IOWA

CITY           SKY/WX    TMP DP  RH WIND       PRES   REMARKS
CEDAR RAPIDS   PTSUNNY   74  68  81 S9        29.94S
6HR MIN TEMP:  74; 6HR MAX TEMP:  75;

CHARLES CITY * MOSUNNY   75  73  94 SW8       29.92R FOG
DECORAH *      SUNNY     75  70  83 VRB7G13   29.90S
DUBUQUE        MOSUNNY   71  68  90 S14       29.95F
6HR MIN TEMP:  71; 6HR MAX TEMP:  73;

MONTICELLO *   SUNNY     73  70  88 S8        29.94F
OELWEIN *      SUNNY     73  72  94 S12       29.93S
WATERLOO       SUNNY     77  72  84 S13       29.89S
6HR MIN TEMP:  76; 6HR MAX TEMP:  78;

$$

IAZ064-065-067-068-078-221300-
   EAST CENTRAL IOWA

CITY           SKY/WX    TMP DP  RH WIND       PRES   REMARKS
DAVENPORT      SUNNY     74  67  78 S15       29.98F
6HR MIN TEMP:  73; 6HR MAX TEMP:  75;

IOWA CITY      MOSUNNY   74  69  85 S9        29.96F
6HR MIN TEMP:  74; 6HR MAX TEMP:  75;

MT. PLEASANT * MOSUNNY   75  66  73 S9        29.99F
MUSCATINE *    MOSUNNY   75  68  78 S13       29.96F
QUAD CITIES    SUNNY     74  67  78 S8        29.98F
6HR MIN TEMP:  73; 6HR MAX TEMP:  76;

$$

IAZ062-063-075>077-085>089-095>099-221300-
   SOUTHEAST IOWA

CITY           SKY/WX    TMP DP  RH WIND       PRES   REMARKS
BURLINGTON     MOSUNNY   73  68  84 S10       30.00F
6HR MIN TEMP:  72; 6HR MAX TEMP:  76;

FAIRFIELD *    MOSUNNY   75  68  78 S12       29.96F
FORT MADISON * MOSUNNY   75  70  83 S12       30.01F
KEOKUK *       MOSUNNY   73  68  83 S10       30.01F
OSKALOOSA *      N/A     76  72  86 S10       29.96F
CENTERVILLE *  CLEAR     75  72  88 S9        30.00S
OTTUMWA        LGT RAIN  74  70  87 S9        29.97R
6HR MIN TEMP:  74; 6HR MAX TEMP:  76; 6HR PCP:  0.01;

WASHINGTON *   HVY RAIN  73  70  88 S17G26    29.98R VSB 3/4
$$

ABBREVIATIONS USED IN REMARKS
   TC - TEMPERATURES IN CELSIUS
  WCI - WIND CHILL INDEX
   HX - HEAT INDEX
  VSB - VISIBILITY
$$



USA.gov is the U.S. government's official web portal to all federal, state and local government web resources and services.